Location: George Washington National Forest Helicopter Landing Site
(38.6463°N, 79.0851°W)
Time: 11:11:20
(UTC-04:00)

Vanguard 1 Rocket - Visible Passes

Search period start: 23 August 2019 00:00
Search period end: 02 September 2019 00:00
Orbit: 652 x 4224 km, 34.3° (Epoch: 22 August)

Date Brightness Start Highest point End Pass type
(mag) Time Alt. Az. Time Alt. Az. Time Alt. Az.
23 Aug 7.2 04:40:07 47° SW 04:41:05 55° S 04:47:39 10° E visible
24 Aug 8.7 03:32:59 23° ESE 03:32:59 23° ESE 03:35:26 10° E visible
24 Aug 7.8 05:50:16 11° W 05:54:59 54° S 06:03:11 10° ESE visible
25 Aug 7.1 04:43:10 48° SW 04:44:04 55° S 04:50:26 10° ESE visible
26 Aug 8.7 03:36:05 23° ESE 03:36:05 23° ESE 03:38:22 10° E visible
26 Aug 7.9 05:53:23 11° W 05:57:57 46° S 06:05:39 10° ESE visible
27 Aug 7.1 04:46:20 47° SW 04:47:03 52° S 04:53:10 10° ESE visible
28 Aug 8.8 03:39:17 21° ESE 03:39:17 21° ESE 03:41:16 10° ESE visible
28 Aug 8.1 05:56:34 11° W 06:00:56 38° SSW 06:07:59 10° SE visible
29 Aug 7.2 04:49:34 44° SSW 04:50:02 45° S 04:55:51 10° ESE visible
30 Aug 9.0 03:42:36 19° ESE 03:42:36 19° ESE 03:44:09 10° ESE visible
30 Aug 8.3 05:59:54 11° WSW 06:03:56 29° SSW 06:10:07 10° SE visible
31 Aug 7.5 04:52:58 37° SSW 04:53:02 37° SSW 04:58:25 10° SE visible
01 Sep 9.2 03:46:03 15° ESE 03:46:03 15° ESE 03:46:59 10° ESE visible
01 Sep 8.7 06:03:22 11° WSW 06:06:55 21° SSW 06:11:56 10° SSE visible
01 Sep 9.9 21:36:10 10° S 21:39:42 14° SSE 21:39:42 14° SSE visible
